501P/Rankin (2004)

Japanese version
Home page
Updated on June 14, 2025

---------------------------------------------------------------------

* Profile

* Orbital Elements

                    Epoch = 2004 Mar. 16.0 TT
     T = 2004 Mar. 29.50115 TT        Peri. =  52.54933
     e = 0.6949302                    Node  = 140.80218 2000.0
     q = 0.6814459 AU                 Incl. =  10.14371
       a =  2.2337381 AU   n = 0.29522675   P =   3.34 years

* Magnitudes Graph

        H = 19.5  G = 0.15

---------------------------------------------------------------------

The orbital elements are printed on CBET 5520.
The magnitudes graphs are made with Comet for Windows.

---------------------------------------------------------------------

Copyright(C) Seiichi Yoshida (comet@aerith.net). All rights reserved.